sat.trackr.live / text

‹ back to catalog

STARLINK-2402

NORAD 47819 · 2021-018AJ

PAYLOAD ACTIVE UNKNOWN

§ Identity

Operator
Country
US
Launch date
2021-03-11
Launch site
AFETR
Launch vehicle
Mass (kg)
RCS (m²)

Purposes: comms

External: N2YO · Heavens-Above · Gunter

§ Orbital elements

Epoch: 2026-05-24T23:37:46.058304Z

Period
94.01 min
Inclination
53.1582°
Eccentricity
0.0001214
Mean motion
15.31709428 rev/d
Perigee alt
469.9 km
Apogee alt
471.5 km
Semi-major
6,848.8 km
B*
7.8158e-5
RAAN
248.1906°
Arg perigee
84.2452°
Mean anomaly
275.8688°
Rev number
28,847

§ Raw data

STARLINK-24021 47819U 21018AJ  26144.98456086  .00002062  00000+0  78158-4 0  99962 47819  53.1582 248.1906 0001214  84.2452 275.8688 15.31709428288471

JSON: /api/v1/satellites/47819 · /tle

For live sub-satellite position, see the globe view (requires WebGL).

§ Visibility from observer

Set your observer location to see the next 7 days of passes ≥ 10°. The values pass through the URL so the page stays shareable.

No JS? Fill the form by hand. The geolocation button needs JavaScript.